Weather in Killarney

Ireland     52°03′36″N   9°30′21″W
В апреле 2022 года жителям России запретили посещать сайт meteo.paraplan.net по решению Генеральной прокуратуры. Аудитория сайта уменьшилась в 10 раз. Владельцы сайта не видят смысла в поддержке погодного сервера в таких условиях. Сайт будет закрыт в октябре.
temp.,
°C
wind,
m/s
gust,
m/s
humid.,
%
clouds,
%
prec.,
mm/h
press.,
hPa
HPBL,
m
25 september, sun
sun2501:00+6n119158 0.0 102712
04:00+6nw119185 0.0 102610
07:00+6nnw0091100 0.0 102610
10:00+11w1277100 0.0 1026160
13:00+14wnw3569100 0.0 10241016
16:00+14wnw3772100 0.0 10211015
19:00+12wnw3688100 0.1 1020464
22:00+11w3690100 0.0 1019325
26 september, mon
mon2601:00+13wnw41298100 0.3 10151043
04:00+13nw91593100 0.3 10121229
07:00+10nw7148751 0.5 1013965
10:00+12nnw7137756 0.0 10141169
13:00+14nw8126315 0.1 10141293
16:00+14nw8126837 0.0 10141254
19:00+12nw6128119 0.0 1014995
22:00+11nw5118290 0.0 10141005
27 september, tue
tue2701:00+11nw5128445 0.1 1013750
04:00+11wnw4128652 0.0 1012764
07:00+12wnw2699100 1.7 1009414
10:00+14wnw91797100 3.8 10081221
13:00+14wnw91798100 5.3 10071261
16:00+13nnw41198100 0.6 10061077
19:00+11n2498100 1.7 1006301
22:00+11nw2797100 1.8 1007566
28 september, wed
wed2801:00+10nw3995100 2.7 1007647
04:00+10nnw2893100 0.5 1007633
07:00+8nw2493100 0.7 1008100
10:00+11nnw4989100 0.7 1009770
13:00+13nnw5873100 0.8 10091117
16:00+13nnw6868100 0.0 10091185
19:00+11nnw4983100 0.1 1010709
22:00+8wnw229497 0.1 101132
29 september, thu
thu2901:00+8wnw119523 0.1 101115
04:00+9w129492 0.3 101150
07:00+7nw119533 0.4 101113
10:00+11n24843 0.0 1012368
13:00+14nnw34649 0.0 10131137
16:00+14nnw446150 0.0 10141168
19:00+10wnw1182100 0.0 101410
22:00+10ssw1183100 0.0 101415